HK5VD-30 Weather Reports


Display with metric or nautical units.
time (UTC)temp
F
wind
direction
speed
MPH
gust
MPH
rain 1hr
in
rain 24hr
in
rain mn
in
humidity
%
barometer
mb
20260504210358 83 320 9.0 0.0 0.00 0.00 0.00 65 1008.0
20260504203357 82 320 9.0 0.0 0.00 0.00 0.00 65 1008.0
20260504200356 81 60 3.0 0.0 0.00 0.00 0.00 65 1008.0
20260504193355 80 60 3.0 0.0 0.00 0.00 0.00 65 1008.0
20260504190354 87 10 5.0 0.0 0.00 0.00 0.00 10 1009.0
20260504183353 86 10 5.0 0.0 0.00 0.00 0.00 10 1009.0
20260504180352 85 10 5.0 0.0 0.00 0.00 0.00 10 1010.0
20260504173351 84 10 5.0 0.0 0.00 0.00 0.00 10 1010.0
20260504170350 83 10 5.0 0.0 0.00 0.00 0.00 10 1012.0
20260504160348 81 10 5.0 0.0 0.00 0.00 0.00 10 1013.0
20260504150345 79 320 3.0 0.0 0.00 0.00 0.00 10 1014.0
20260504140343 77 320 3.0 0.0 0.00 0.00 0.00 10 1014.0
20260504130341 75 30 2.0 0.0 0.00 0.00 0.00 10 1014.0
20260504110337 71 0 1.0 0.0 0.00 0.00 0.00 10 1013.0
20260504100335 69 0 1.0 0.0 0.00 0.00 0.00 10 1013.0
20260504080331 70 100 2.0 0.0 0.00 0.00 0.00 94 1012.0
20260504070329 73 180 3.0 0.0 0.00 0.00 0.00 10 1013.0
20260504050325 69 80 3.0 0.0 0.00 0.00 0.00 10 1014.0
20260504043324 75 150 5.0 0.0 0.00 0.00 0.00 88 1014.0
20260504040323 74 150 5.0 0.0 0.00 0.00 0.00 88 1015.0
20260504033322 73 150 5.0 0.0 0.00 0.00 0.00 88 1015.0
20260504030321 72 150 5.0 0.0 0.00 0.00 0.00 88 1014.0
20260504023320 71 150 5.0 0.0 0.00 0.00 0.00 88 1014.0
20260504020319 75 170 4.0 0.0 0.00 0.00 0.00 83 1014.0
20260504013317 74 170 4.0 0.0 0.00 0.00 0.00 83 1014.0
20260504010316 73 170 4.0 0.0 0.00 0.00 0.00 83 1012.0
20260504003315 78 300 4.0 0.0 0.00 0.00 0.00 65 1011.0
20260504000314 80 310 9.0 0.0 0.00 0.00 0.00 61 1011.0
20260503233313 80 310 9.0 0.0 0.00 0.00 0.00 61 1011.0
20260503230312 84 330 13.0 0.0 0.00 0.00 0.00 58 1010.0
20260503223311 84 330 13.0 0.0 0.00 0.00 0.00 58 1010.0
20260503220310 86 320 12.0 0.0 0.00 0.00 0.00 54 1009.0
20260503213309 86 320 12.0 0.0 0.00 0.00 0.00 54 1009.0